RH
24 28 34 47 55 66 60 53 47 40 35 31 42 43 38 34 28 24 27 31 36 41 45 46 44 43 44 54 55 49 46 45 47 48 48 53 54 52 49 47 45 49 43 43 43 43 43
22 21 26 30 38 39 55 66 63 50 42 36 33 46 40 39 35 24 26 27 34 37 46 48 48 50 48 46 39 44 47 47 47 48 48 50 49 51 54 53 50 48 47 45 45 44 43
21 22 21 20 18 31 31 62 71 63 51 46 37 39 45 41 40 34 26 29 33 37 42 46 46 45 46 44 39 37 43 48 47 49 48 48 51 56 62 58 54 54 50 46 47 44 45
23 24 26 24 22 18 26 38 61 75 63 51 44 43 49 48 44 39 29 30 36 37 45 49 48 48 46 43 40 40 40 45 47 49 47 49 55 53 63 66 64 63 60 58 43 47 49
19 23 25 26 26 25 24 27 40 66 72 62 55 50 55 53 49 46 36 34 36 34 42 49 52 49 48 45 43 41 43 44 46 46 49 49 55 58 58 66 69 65 63 62 58 50 53
22 22 23 25 27 26 26 24 30 39 57 73 62 55 63 57 53 49 40 44 40 38 40 46 48 50 45 44 43 41 40 44 47 47 50 50 54 61 63 66 65 68 75 66 65 57 59
25 25 24 23 24 26 26 26 25 33 51 68 71 64 67 69 54 54 45 48 45 47 45 40 43 43 43 44 44 43 41 44 47 49 53 53 59 61 60 65 65 70 74 74 66 65 60
25 26 26 32 30 23 27 26 26 22 39 56 73 74 74 73 71 56 54 48 42 43 45 43 44 43 43 44 43 46 46 49 53 56 57 60 59 56 60 64 67 69 72 73 66 64 65
30 34 34 36 28 26 31 32 28 28 30 43 73 77 76 81 68 66 55 51 50 48 45 38 37 41 41 46 50 49 49 51 55 59 61 60 54 55 61 64 69 70 73 70 70 67 63
36 38 39 41 40 37 36 40 41 34 32 49 65 78 83 83 79 64 59 56 54 57 57 42 44 44 43 50 51 47 52 52 59 63 67 65 59 65 68 66 72 74 71 71 69 70 71
37 42 46 48 45 40 52 51 56 51 37 55 89 89 86 87 77 75 57 59 61 61 62 48 52 51 52 51 54 56 57 60 65 71 73 67 68 71 70 67 72 73 73 75 76 79 78
46 44 52 54 48 47 55 64 73 59 43 55 84 94 97 95 85 74 69 58 67 67 66 59 57 57 58 56 57 60 64 67 72 78 80 74 72 73 68 66 71 75 81 82 82 82 82
45 51 55 54 59 60 85 85 84 68 50 49 87 96 99 96 87 74 65 68 75 72 52 60 56 59 57 62 63 66 73 77 81 86 81 80 74 74 74 74 76 78 87 97 98 95 80
51 57 61 56 59 80 92 91 88 71 59 51 88 92 92 97 97 90 69 72 71 50 56 55 57 63 59 61 66 72 79 76 69 77 88 88 85 80 75 78 84 88 85 92 89 94 81
57 60 70 61 66 78 92 90 84 80 67 75 82 95 98 97 97 90 74 74 59 48 51 57 61 64 67 68 70 78 71 56 61 72 89 92 89 77 77 82 88 95 96 69 80 82 98
54 57 68 69 80 88 94 97 98 96 86 91 90 98 98 99 94 92 80 64 55 52 54 56 62 61 65 70 77 72 58 55 64 64 79 88 88 79 83 88 83 82 82 97 97 95 95
51 52 59 73 85 82 87 91 98 98 85 90 97 97 98 98 95 95 78 62 58 57 60 65 65 67 68 73 77 63 60 54 60 63 72 87 93 88 88 80 78 90 89 87 80 82 84
52 53 54 63 81 74 79 82 98 99 98 92 95 97 99 95 96 92 82 63 60 64 67 68 64 71 73 80 81 70 69 62 62 70 81 83 89 86 77 84 82 85 83 84 92 76 63
51 47 56 56 69 64 75 78 90 95 98 98 98 98 98 98 88 88 73 69 75 77 74 68 71 77 81 84 75 70 73 68 73 78 85 90 95 95 95 95 94 91 84 70 64 76 64
50 47 55 54 60 54 71 80 89 98 96 95 97 98 98 97 93 84 75 82 83 77 71 72 80 84 88 82 67 68 74 71 74 83 89 95 98 96 89 95 94 93 80 63 66 73 63
47 49 59 55 42 54 70 81 90 97 93 95 94 90 84 87 88 77 86 85 83 85 79 81 86 90 90 79 70 71 72 81 85 89 95 98 97 98 94 93 98 86 76 64 61 51 63
46 46 59 54 59 51 66 80 87 97 97 97 98 90 89 88 88 84 86 82 79 84 90 85 90 89 91 81 63 59 68 76 83 93 96 97 97 98 98 97 96 83 77 74 66 62 68
46 49 57 56 59 50 64 82 92 97 98 98 98 97 89 86 89 89 83 81 83 84 88 82 88 91 89 80 65 60 68 77 87 95 98 98 98 98 95 96 88 86 74 76 71 73 77
46 49 58 54 53 51 67 82 93 98 98 99 99 98 98 96 87 85 88 89 83 88 84 76 81 89 91 82 66 61 72 70 83 89 94 98 98 98 98 99 97 86 81 80 81 85 84
43 52 52 56 48 49 67 82 96 97 97 98 98 98 93 89 90 91 91 87 91 90 86 75 70 71 92 89 74 71 79 72 75 76 87 92 95 98 99 94 83 87 94 95 94 93 87
45 42 53 53 46 45 67 79 90 95 93 92 96 98 98 97 95 94 96 85 89 93 91 79 71 92 96 93 84 80 75 76 74 69 77 86 88 88 88 90 76 70 82 84 88 87 80
48 42 36 44 42 37 61 84 92 92 92 94 97 95 95 91 90 87 88 82 84 90 88 77 91 96 98 95 89 78 76 72 75 75 74 79 83 83 84 85 76 67 67 72 87 69 67
40 47 42 40 41 31 48 73 85 90 94 94 97 96 92 89 91 94 86 84 89 91 88 89 97 97 98 97 90 85 79 80 73 71 69 70 70 77 79 83 80 68 65 68 63 59 59
40 45 34 35 38 30 41 66 75 87 94 96 96 99 99 95 91 90 86 86 88 90 79 94 97 98 96 94 87 86 79 83 76 79 73 74 66 71 70 72 67 69 66 63 61 59 61